Marysville, CA

5:54 PM PDT on October 16, 2019 (GMT -0700)
Yuba County

Weather History for KMYV - September, 2019

Change the Weather History Date:

Saturday, September 21, 2019

  Actual Average Record
Temperature  
Mean Temperature 70 °F -  
Max Temperature 88 °F 86 °F 99 °F (2011)
Min Temperature 53 °F 55 °F 48 °F (1965)
Cooling Degree Days 6    
Growing Degree Days 20 (Base 50)    
Moisture  
Dew Point 48 °F    
Average Humidity 47    
Maximum Humidity 80    
Minimum Humidity 21    
Precipitation  
Precipitation 0.00 in - - ()
Sea Level Pressure  
Sea Level Pressure 29.93 in    
Wind  
Wind Speed 5 mph ()    
Max Wind Speed 10 mph    
Max Gust Speed -    
Visibility 10.0 miles    
Events      
Averages and records for this station are not official NWS values.
T = Trace of Precipitation, MM = Missing Value Source: Averaged Metar Reports

Daily Weather History Graph

Daily Weather History Graph

Search for Another Location

Airport or City:

Astronomy

Sep. 21, 2019 Rise Set
Actual Time 6:52 AM PDT 7:05 PM PDT
Civil Twilight 6:26 AM PDT 7:31 PM PDT
Nautical Twilight 5:54 AM PDT 8:02 PM PDT
Astronomical Twilight 5:23 AM PDT 8:34 PM PDT
Moon 11:50 PM PDT (9/21) 2:01 PM PDT (9/21)
Length of Visible Light 13h 05m
Length of Day
12h 12m
Waning Gibbous, 53% of the Moon is Illuminated
Sep 21
Waning Gibbous
Sep 21
Last Quarter
Sep 28
New
Oct 5
First Quarter
Oct 13
Full

Hourly Weather History & Observations

Time (PDT) Temp. Dew Point Humidity Pressure Visibility Wind Dir Wind Speed Gust Speed Precip Events Conditions
12:53 AM 63.0 °F 50.0 °F 63% 29.92 in 10.0 mi North 8.1 mph - N/A   Clear
1:53 AM 66.0 °F 46.9 °F 50% 29.93 in 10.0 mi NNW 10.4 mph - N/A   Clear
2:53 AM 63.0 °F 46.9 °F 56% 29.94 in 10.0 mi NNW 8.1 mph - N/A   Clear
3:53 AM 64.9 °F 46.9 °F 52% 29.94 in 10.0 mi North 9.2 mph - N/A   Clear
4:53 AM 63.0 °F 46.9 °F 56% 29.94 in 10.0 mi Variable 3.5 mph - N/A   Clear
5:53 AM 53.1 °F 46.9 °F 80% 29.95 in 10.0 mi Variable 3.5 mph - N/A   Clear
6:53 AM 55.9 °F 48.0 °F 75% 29.97 in 10.0 mi ENE 3.5 mph - N/A   Clear
7:53 AM 61.0 °F 48.9 °F 64% 29.97 in 10.0 mi NNW 6.9 mph - N/A   Clear
8:53 AM 66.9 °F 48.9 °F 52% 29.99 in 10.0 mi North 6.9 mph - N/A   Clear
9:53 AM 72.0 °F 48.9 °F 44% 29.99 in 10.0 mi North 4.6 mph - N/A   Clear
10:53 AM 75.9 °F 46.9 °F 36% 29.99 in 10.0 mi NW 5.8 mph - N/A   Clear
11:53 AM 81.0 °F 46.0 °F 29% 29.97 in 10.0 mi WNW 6.9 mph - N/A   Clear
12:53 PM 82.9 °F 46.0 °F 27% 29.95 in 10.0 mi NNW 5.8 mph - N/A   Clear
1:53 PM 84.9 °F 46.0 °F 26% 29.93 in 10.0 mi North 9.2 mph - N/A   Clear
2:53 PM 86.0 °F 45.0 °F 24% 29.90 in 10.0 mi Variable 5.8 mph - N/A   Clear
3:53 PM 88.0 °F 43.0 °F 21% 29.89 in 10.0 mi ENE 5.8 mph - N/A   Clear
4:53 PM 87.1 °F 43.0 °F 21% 29.88 in 10.0 mi NW 4.6 mph - N/A   Clear
5:53 PM 87.1 °F 45.0 °F 23% 29.87 in 10.0 mi North 4.6 mph - N/A   Clear
6:53 PM 82.9 °F 46.9 °F 28% 29.87 in 10.0 mi Calm Calm - N/A   Clear
7:53 PM 72.0 °F 52.0 °F 49% 29.88 in 10.0 mi Calm Calm - N/A   Clear
8:53 PM 68.0 °F 52.0 °F 56% 29.89 in 10.0 mi Calm Calm - N/A   Clear
9:53 PM 66.9 °F 52.0 °F 59% 29.90 in 10.0 mi ENE 3.5 mph - N/A   Clear
10:53 PM 63.0 °F 50.0 °F 63% 29.91 in 10.0 mi ENE 4.6 mph - N/A   Clear
11:53 PM 63.0 °F 50.0 °F 63% 29.91 in 10.0 mi Calm Calm - N/A   Clear